User: anonymous
Location: Nebraska Star Party
(42.6000°N, 100.8833°W)
Time: 09:29:35
(UTC-05:00)
Language:

Iridium 37 - Orbit

View from above orbital plane
View from above orbital plane
View from above satellite
View from above satellite

Ground track
Ground track

The orbit data is extracted from the following two-line orbital elements,

1 24968U 97056D   14274.37361010  .00000591  00000-0  20400-3 0  9865
2 24968 086.4013 012.5924 0002323 111.1426 249.0019 14.34223536890669
Epoch (UTC): 01 October 2014 08:57:59
Eccentricity: 0.0002323
inclination: 86.4013°
perigee height: 776 km
apogee height: 779 km
right ascension of ascending node: 12.5924°
argument of perigee: 111.1426°
revolutions per day: 14.34223536
mean anomaly at epoch: 249.0019°
orbit number at epoch: 89066

The dashed part of the orbit path shows where the satellite is in the earth's shadow,  

DLR